Location: Newark
(46.9000°N, 28.3500°E)
Time: 21:59:11
(UTC+00:00)

Explorer 7 - Pass Details

Date: 03 September 2019
Orbit: 485 x 680 km, 50.3° (Epoch: 14 September)

Event Time Altitude Azimuth Distance (km) Brightness Sun altitude
Rises 10:31:06 0° 283° (WNW) 2,951 10.5 50.3°
Reaches altitude 10° 10:34:52 10° 253° (WSW) 1,990 10.1 50.2°
Maximum altitude 10:36:37 12° 231° (SW) 1,830 10.2 50.1°
Drops below altitude 10° 10:38:20 10° 208° (SSW) 1,938 10.5 50.1°
Sets 10:41:52 0° 177° (S) 2,779 11.0 49.9°
